Home   Weather   Erfurt   Past weeks

Flag for Germany Past Weather in Erfurt, Thuringia, Germany — Yesterday and Last 2 Weeks

Now
55 °F

Drizzle. More clouds than sun.


Feels Like: 51 °F
Forecast: 55 / 71 °F
Wind: 21 mph from Northwest

Location: Erfurt-Bindersleben

Current Time: Jul 26, 2017 at 12:46:09 pm

Latest Report: Jul 26, 2017 at 11:50 am


Visibility: 4 mi

Pressure: 29.68 "Hg

Humidity: 100%

Dew Point: 55 °F

Location of ErfurtLocation

Past Weather in Erfurt — Graph

°F

Erfurt Temperature Yesterday

Maximum temperature yesterday: 57 °F (at 2:20 pm)
Minimum temperature yesterday: 54 °F (at 2:50 am)
Average temperature yesterday: 55 °F

High & Low Weather Summary for the Past Weeks

 TemperatureHumidityPressure
High90 °F (Jul 19, 3:50 pm)100% (Jul 13, 4:50 am)30.24 "Hg (Jul 13, 4:50 am)
Low45 °F (Jul 13, 4:50 am)29% (Jul 19, 4:50 pm)29.56 "Hg (Jul 26, 4:50 am)
Average63 °F75%29.96 "Hg
* Reported Jul 11 11:20 am — Jul 26 11:20 am, Erfurt. Weather by CustomWeather, © 2017

Note: Actual official high and low records may vary slightly from our data, if they occured in-between our weather recording intervals... More about our weather records

Advertising

Erfurt Weather History for the Previous 24 Hours

Scroll right to see more
 ConditionsComfort  
Time TempWeatherWind HumidityBarometerVisibility
11:20 am
Wed, Jul 26
57 °FDrizzle. More clouds than sun.21 mph94%29.65 "HgN/A
10:53 am57 °FDrizzle. More clouds than sun.18 mph94%29.65 "HgN/A
10:50 am57 °FDrizzle. More clouds than sun.20 mph94%29.65 "HgN/A
10:20 am55 °FDrizzle. More clouds than sun.18 mph100%29.65 "Hg5 mi
9:50 am55 °FDrizzle. More clouds than sun.18 mph100%29.62 "Hg6 mi
9:20 am55 °FDrizzle. More clouds than sun.20 mph100%29.62 "Hg4 mi
8:57 am55 °FDrizzle. Fog.21 mph94%29.62 "Hg3 mi
8:20 am55 °FBroken clouds.23 mph94%29.59 "HgN/A
7:50 am55 °FDrizzle. More clouds than sun.22 mph94%29.59 "HgN/A
7:35 am55 °FMore clouds than sun.21 mph94%29.56 "HgN/A
7:20 am55 °FDrizzle. Fog.20 mph94%29.56 "Hg1 mi
6:56 am55 °FDrizzle. Fog.21 mph94%29.56 "Hg2 mi
6:50 am55 °FDrizzle. Fog.20 mph94%29.56 "Hg2 mi
6:23 am54 °FDrizzle. Fog.17 mph100%29.56 "Hg2 mi
6:20 am54 °FDrizzle. Fog.18 mph100%29.56 "Hg2 mi
5:50 am54 °FDrizzle. Fog.18 mph100%29.56 "Hg2 mi
5:20 am54 °FPartly cloudy.16 mph100%29.56 "HgN/A
4:50 am54 °FPartly cloudy.16 mph100%29.56 "HgN/A
4:20 am54 °FPartly cloudy.15 mph100%29.59 "HgN/A
3:50 am54 °FPartly cloudy.14 mph100%29.59 "HgN/A
3:20 am55 °FPassing clouds.15 mph94%29.59 "HgN/A
2:50 am55 °FPassing clouds.13 mph94%29.59 "HgN/A
2:20 am55 °FPartly cloudy.14 mph94%29.59 "Hg4 mi
1:50 am55 °FPartly cloudy.12 mph100%29.59 "Hg4 mi
1:20 am55 °FDrizzle. Fog.9 mph100%29.59 "Hg2 mi
12:50 am55 °FPartly cloudy.10 mph100%29.59 "Hg5 mi
12:20 am55 °FPassing clouds.9 mph100%29.59 "HgN/A
11:50 pm
Tue, Jul 25
55 °FPartly cloudy.10 mph100%29.59 "HgN/A
11:20 pm55 °FPartly cloudy.9 mph100%29.62 "HgN/A
10:50 pm55 °FPassing clouds.12 mph100%29.62 "HgN/A
10:20 pm55 °FPartly cloudy.9 mph100%29.62 "HgN/A
9:50 pm55 °FLight rain. Passing clouds.9 mph100%29.62 "HgN/A
9:20 pm55 °FPartly cloudy.10 mph100%29.62 "HgN/A
8:50 pm55 °FPartly sunny.9 mph100%29.62 "HgN/A
8:20 pm55 °FPartly sunny.10 mph100%29.62 "HgN/A
7:50 pm55 °FPartly sunny.13 mph100%29.62 "HgN/A
7:20 pm57 °FPartly sunny.10 mph94%29.62 "HgN/A
6:59 pm57 °FPartly sunny.10 mph94%29.62 "HgN/A
6:50 pm57 °FPartly sunny.9 mph94%29.65 "HgN/A
6:20 pm57 °FSprinkles. Partly sunny.10 mph94%29.62 "Hg6 mi
5:50 pm57 °FSprinkles. Partly sunny.9 mph94%29.62 "Hg6 mi
5:20 pm57 °FRain showers. Partly sunny.12 mph94%29.62 "Hg6 mi
4:50 pm57 °FRain showers. Partly sunny.13 mph94%29.62 "Hg6 mi
4:20 pm57 °FDrizzle. Partly sunny.12 mph94%29.62 "Hg6 mi
3:50 pm57 °FDrizzle. Partly sunny.13 mph94%29.62 "HgN/A
3:20 pm57 °FDrizzle. Mostly cloudy.9 mph94%29.62 "Hg6 mi
2:50 pm57 °FDrizzle. Mostly cloudy.16 mph94%29.62 "Hg4 mi
2:20 pm57 °FDrizzle. Mostly cloudy.15 mph94%29.62 "Hg5 mi
1:50 pm55 °FRain. Mostly cloudy.17 mph100%29.62 "Hg5 mi
1:20 pm55 °FLight rain. More clouds than sun.15 mph100%29.65 "Hg5 mi
12:50 pm55 °FRain. Mostly cloudy.15 mph94%29.65 "Hg4 mi
12:20 pm55 °FRain. Mostly cloudy.12 mph94%29.65 "Hg5 mi
Weather by CustomWeather, © 2017

See weather overviewHow to use our weather pages